Location: Dennis Manor
(64.8292°N, 147.5397°W)
Time: 09:02:29
(UTC+00:00)

Envisat - Pass Details

Date: 05 November 2020
Orbit: 764 x 766 km, 98.1° (Epoch: 05 December)

Event Time Altitude Azimuth Distance (km) Brightness Sun altitude
Rises 14:40:32 0° 18° (NNE) 3,250 6.6 -20.0°
Reaches altitude 10° 14:43:20 10° 33° (NNE) 2,319 6.0 -19.7°
Maximum altitude 14:47:21 23° 85° (E) 1,600 5.5 -19.3°
Drops below altitude 10° 14:51:21 10° 137° (SE) 2,306 6.0 -18.9°
Sets 14:54:08 0° 152° (SSE) 3,228 6.6 -18.6°
